| time (UTC) | temp F | wind direction | speed knots | gust knots | rain 1hr in | rain 24hr in | rain mn in | humidity % | barometer mb |
| 20260510185814 | 66 | 304 | 1.7 | 6.1 | 0.00 | 0.00 | 0.00 | 26 | 937.8 |
| 20260510185313 | 67 | 335 | 0.0 | 6.1 | 0.00 | 0.00 | 0.00 | 25 | 937.7 |
| 20260510184809 | 67 | 318 | 0.0 | 2.6 | 0.00 | 0.00 | 0.00 | 25 | 937.6 |
| 20260510184306 | 68 | 23 | 2.6 | 4.3 | 0.00 | 0.00 | 0.00 | 25 | 938.0 |
| 20260510183800 | 66 | 59 | 0.0 | 0.9 | 0.00 | 0.00 | 0.00 | 25 | 937.7 |
| 20260510183255 | 67 | 29 | 0.0 | 0.0 | 0.00 | 0.00 | 0.00 | 24 | 937.8 |
| 20260510182752 | 65 | 300 | 0.0 | 1.7 | 0.00 | 0.00 | 0.00 | 26 | 937.6 |
| 20260510182248 | 65 | 331 | 3.5 | 6.1 | 0.00 | 0.00 | 0.00 | 25 | 938.0 |
| 20260510181745 | 65 | 30 | 0.9 | 1.7 | 0.00 | 0.00 | 0.00 | 26 | 937.7 |
| 20260510181242 | 67 | 342 | 0.9 | 6.1 | 0.00 | 0.00 | 0.00 | 26 | 937.8 |
| 20260510180738 | 69 | 114 | 0.0 | 0.0 | 0.00 | 0.00 | 0.00 | 27 | 938.1 |
| 20260510180235 | 68 | 69 | 0.0 | 0.0 | 0.00 | 0.00 | 0.00 | 23 | 937.8 |
| 20260510175732 | 65 | 5 | 0.0 | 6.1 | 0.00 | 0.00 | 0.00 | 25 | 937.7 |
| 20260510175228 | 66 | 214 | 0.0 | 4.3 | 0.00 | 0.00 | 0.00 | 26 | 937.8 |
| 20260510174725 | 66 | 51 | 0.0 | 0.9 | 0.00 | 0.00 | 0.00 | 25 | 937.7 |
| 20260510174222 | 65 | 328 | 1.7 | 2.6 | 0.00 | 0.00 | 0.00 | 27 | 938.0 |
| 20260510173718 | 65 | 333 | 2.6 | 4.3 | 0.00 | 0.00 | 0.00 | 26 | 937.8 |
| 20260510173214 | 64 | 39 | 0.0 | 0.0 | 0.00 | 0.00 | 0.00 | 28 | 937.7 |
| 20260510172709 | 66 | 4 | 0.9 | 2.6 | 0.00 | 0.00 | 0.00 | 27 | 938.0 |
| 20260510172206 | 64 | 80 | 0.0 | 0.0 | 0.00 | 0.00 | 0.00 | 26 | 938.0 |
| 20260510171703 | 64 | 116 | 0.0 | 4.3 | 0.00 | 0.00 | 0.00 | 28 | 938.1 |
| 20260510171200 | 63 | 59 | 0.0 | 0.9 | 0.00 | 0.00 | 0.00 | 27 | 938.2 |
| 20260510170657 | 65 | 217 | 5.2 | 6.1 | 0.00 | 0.00 | 0.00 | 27 | 938.0 |
| 20260510170153 | 64 | 122 | 0.0 | 0.0 | 0.00 | 0.00 | 0.00 | 27 | 938.1 |
| 20260510165649 | 63 | 260 | 0.9 | 4.3 | 0.00 | 0.00 | 0.00 | 27 | 938.1 |
| 20260510165145 | 63 | 69 | 0.0 | 5.2 | 0.00 | 0.00 | 0.00 | 27 | 938.3 |
| 20260510164643 | 63 | 314 | 0.0 | 0.0 | 0.00 | 0.00 | 0.00 | 28 | 938.2 |
| 20260510164140 | 63 | 102 | 0.0 | 0.9 | 0.00 | 0.00 | 0.00 | 28 | 938.1 |
| 20260510163635 | 62 | 25 | 0.0 | 0.0 | 0.00 | 0.00 | 0.00 | 28 | 938.1 |
| 20260510163131 | 63 | 214 | 0.0 | 0.0 | 0.00 | 0.00 | 0.00 | 27 | 938.1 |
| 20260510162625 | 61 | 65 | 0.0 | 1.7 | 0.00 | 0.00 | 0.00 | 28 | 938.1 |
| 20260510162122 | 61 | 111 | 3.5 | 5.2 | 0.00 | 0.00 | 0.00 | 29 | 938.2 |
| 20260510161618 | 63 | 108 | 4.3 | 5.2 | 0.00 | 0.00 | 0.00 | 28 | 938.2 |
| 20260510161115 | 62 | 70 | 0.0 | 4.3 | 0.00 | 0.00 | 0.00 | 28 | 938.0 |
| 20260510160612 | 61 | 149 | 0.0 | 1.7 | 0.00 | 0.00 | 0.00 | 33 | 938.2 |
| 20260510160112 | 62 | 199 | 2.6 | 2.6 | 0.00 | 0.00 | 0.00 | 32 | 938.0 |
| 20260510155609 | 62 | 118 | 0.0 | 0.9 | 0.00 | 0.00 | 0.00 | 35 | 937.8 |
| 20260510155105 | 61 | 71 | 0.0 | 1.7 | 0.00 | 0.00 | 0.00 | 38 | 938.2 |
| 20260510154600 | 61 | 110 | 0.0 | 0.0 | 0.00 | 0.00 | 0.00 | 40 | 938.1 |
| 20260510154056 | 59 | 130 | 0.0 | 0.0 | 0.00 | 0.00 | 0.00 | 41 | 938.4 |
| 20260510153551 | 58 | 42 | 0.0 | 0.0 | 0.00 | 0.00 | 0.00 | 43 | 938.3 |
| 20260510153048 | 58 | 36 | 0.0 | 0.0 | 0.00 | 0.00 | 0.00 | 43 | 938.3 |
| 20260510152545 | 59 | 59 | 0.0 | 0.0 | 0.00 | 0.00 | 0.00 | 42 | 938.1 |
| 20260510152041 | 56 | 151 | 0.0 | 1.7 | 0.00 | 0.00 | 0.00 | 45 | 938.2 |
| 20260510151538 | 56 | 307 | 1.7 | 2.6 | 0.00 | 0.00 | 0.00 | 45 | 938.1 |
| 20260510151036 | 59 | 46 | 0.9 | 0.9 | 0.00 | 0.00 | 0.00 | 42 | 938.1 |
| 20260510150530 | 56 | 69 | 0.0 | 0.0 | 0.00 | 0.00 | 0.00 | 45 | 938.2 |
| 20260510150027 | 54 | 96 | 0.0 | 0.0 | 0.00 | 0.00 | 0.00 | 47 | 938.2 |
| 20260510145523 | 54 | 75 | 0.0 | 0.9 | 0.00 | 0.00 | 0.00 | 47 | 938.1 |
| 20260510145020 | 53 | 95 | 0.9 | 1.7 | 0.00 | 0.00 | 0.00 | 49 | 937.8 |
| 20260510144517 | 52 | 120 | 1.7 | 4.3 | 0.00 | 0.00 | 0.00 | 50 | 938.1 |
| 20260510144013 | 51 | 122 | 0.9 | 2.6 | 0.00 | 0.00 | 0.00 | 52 | 938.1 |
| 20260510143508 | 52 | 139 | 3.5 | 5.2 | 0.00 | 0.00 | 0.00 | 49 | 937.8 |
| 20260510143005 | 50 | 88 | 0.9 | 2.6 | 0.00 | 0.00 | 0.00 | 52 | 938.0 |
| 20260510142502 | 48 | 80 | 1.7 | 5.2 | 0.00 | 0.00 | 0.00 | 54 | 938.1 |
| 20260510141958 | 48 | 139 | 3.5 | 4.3 | 0.00 | 0.00 | 0.00 | 54 | 937.8 |
| 20260510141455 | 47 | 156 | 3.5 | 4.3 | 0.00 | 0.00 | 0.00 | 57 | 937.8 |
| 20260510140952 | 46 | 171 | 2.6 | 4.3 | 0.00 | 0.00 | 0.00 | 60 | 938.2 |
| 20260510140448 | 45 | 91 | 1.7 | 4.3 | 0.00 | 0.00 | 0.00 | 61 | 938.0 |
| 20260510135947 | 44 | 146 | 3.5 | 4.3 | 0.00 | 0.00 | 0.00 | 62 | 938.1 |
| 20260510135443 | 44 | 148 | 4.3 | 5.2 | 0.00 | 0.00 | 0.00 | 62 | 938.0 |
| 20260510134941 | 44 | 97 | 1.7 | 2.6 | 0.00 | 0.00 | 0.00 | 63 | 938.1 |
| 20260510134437 | 43 | 111 | 2.6 | 2.6 | 0.00 | 0.00 | 0.00 | 64 | 937.7 |
| 20260510133934 | 42 | 128 | 2.6 | 4.3 | 0.00 | 0.00 | 0.00 | 64 | 937.8 |
| 20260510133430 | 41 | 90 | 2.6 | 2.6 | 0.00 | 0.00 | 0.00 | 65 | 937.8 |
| 20260510132925 | 41 | 122 | 1.7 | 2.6 | 0.00 | 0.00 | 0.00 | 67 | 937.6 |
| 20260510132423 | 40 | 109 | 0.9 | 2.6 | 0.00 | 0.00 | 0.00 | 68 | 937.7 |
| 20260510131920 | 39 | 122 | 2.6 | 4.3 | 0.00 | 0.00 | 0.00 | 70 | 937.8 |
| 20260510131418 | 38 | 120 | 2.6 | 4.3 | 0.00 | 0.00 | 0.00 | 70 | 937.5 |
| 20260510130914 | 38 | 103 | 3.5 | 4.3 | 0.00 | 0.00 | 0.00 | 70 | 937.6 |
| 20260510130411 | 37 | 123 | 2.6 | 2.6 | 0.00 | 0.00 | 0.00 | 72 | 937.5 |
| 20260510125908 | 38 | 42 | 1.7 | 1.7 | 0.00 | 0.00 | 0.00 | 70 | 937.4 |
| 20260510125404 | 38 | 122 | 2.6 | 5.2 | 0.00 | 0.00 | 0.00 | 70 | 937.6 |
| 20260510124901 | 37 | 114 | 2.6 | 4.3 | 0.00 | 0.00 | 0.00 | 71 | 937.4 |
| 20260510124358 | 37 | 141 | 4.3 | 7.0 | 0.00 | 0.00 | 0.00 | 72 | 937.4 |
| 20260510123854 | 36 | 121 | 2.6 | 5.2 | 0.00 | 0.00 | 0.00 | 73 | 937.4 |
| 20260510123349 | 36 | 140 | 2.6 | 4.3 | 0.00 | 0.00 | 0.00 | 74 | 937.4 |
| 20260510122846 | 35 | 143 | 4.3 | 7.0 | 0.00 | 0.00 | 0.00 | 76 | 937.5 |
| 20260510122342 | 35 | 123 | 1.7 | 2.6 | 0.00 | 0.00 | 0.00 | 77 | 937.3 |
| 20260510121838 | 34 | 68 | 0.0 | 0.9 | 0.00 | 0.00 | 0.00 | 77 | 937.2 |
| 20260510121336 | 34 | 99 | 0.9 | 1.7 | 0.00 | 0.00 | 0.00 | 77 | 937.0 |
| 20260510120833 | 34 | 136 | 3.5 | 5.2 | 0.00 | 0.00 | 0.00 | 76 | 937.0 |
| 20260510120330 | 34 | 128 | 5.2 | 6.1 | 0.00 | 0.00 | 0.00 | 77 | 937.0 |
| 20260510115825 | 34 | 128 | 5.2 | 7.0 | 0.00 | 0.00 | 0.00 | 77 | 937.0 |
| 20260510115323 | 34 | 131 | 2.6 | 4.3 | 0.00 | 0.00 | 0.00 | 77 | 936.8 |
| 20260510114819 | 34 | 125 | 2.6 | 4.3 | 0.00 | 0.00 | 0.00 | 77 | 936.8 |
| 20260510114316 | 34 | 122 | 2.6 | 5.2 | 0.00 | 0.00 | 0.00 | 76 | 937.0 |
| 20260510113811 | 35 | 109 | 3.5 | 5.2 | 0.00 | 0.00 | 0.00 | 76 | 937.0 |
| 20260510113308 | 35 | 109 | 1.7 | 1.7 | 0.00 | 0.00 | 0.00 | 76 | 937.3 |
| 20260510112805 | 34 | 98 | 2.6 | 2.6 | 0.00 | 0.00 | 0.00 | 77 | 937.0 |
| 20260510112305 | 34 | 105 | 1.7 | 2.6 | 0.00 | 0.00 | 0.00 | 76 | 936.9 |
| 20260510111757 | 34 | 120 | 2.6 | 4.3 | 0.00 | 0.00 | 0.00 | 76 | 936.9 |
| 20260510111254 | 34 | 121 | 3.5 | 4.3 | 0.00 | 0.00 | 0.00 | 76 | 936.9 |
| 20260510110754 | 34 | 130 | 3.5 | 5.2 | 0.00 | 0.00 | 0.00 | 76 | 937.3 |
| 20260510110252 | 34 | 129 | 5.2 | 5.2 | 0.00 | 0.00 | 0.00 | 77 | 937.0 |
| 20260510105752 | 34 | 134 | 4.3 | 5.2 | 0.00 | 0.00 | 0.00 | 77 | 937.0 |
| 20260510105247 | 34 | 119 | 3.5 | 4.3 | 0.00 | 0.00 | 0.00 | 77 | 937.0 |
| 20260510104743 | 34 | 115 | 2.6 | 2.6 | 0.00 | 0.00 | 0.00 | 76 | 937.0 |
| 20260510104241 | 34 | 105 | 3.5 | 4.3 | 0.00 | 0.00 | 0.00 | 75 | 936.9 |
| 20260510103737 | 35 | 108 | 4.3 | 4.3 | 0.00 | 0.00 | 0.00 | 73 | 936.8 |
| 20260510103235 | 36 | 124 | 2.6 | 4.3 | 0.00 | 0.00 | 0.00 | 72 | 936.9 |
| 20260510102734 | 36 | 94 | 1.7 | 2.6 | 0.00 | 0.00 | 0.00 | 73 | 937.2 |
| 20260510102230 | 35 | 126 | 1.7 | 2.6 | 0.00 | 0.00 | 0.00 | 74 | 936.8 |
| 20260510101728 | 35 | 94 | 1.7 | 2.6 | 0.00 | 0.00 | 0.00 | 74 | 937.2 |
| 20260510101226 | 35 | 122 | 2.6 | 2.6 | 0.00 | 0.00 | 0.00 | 75 | 936.9 |
| 20260510100722 | 35 | 124 | 2.6 | 2.6 | 0.00 | 0.00 | 0.00 | 75 | 936.8 |
| 20260510100220 | 35 | 126 | 3.5 | 5.2 | 0.00 | 0.00 | 0.00 | 75 | 936.8 |
| 20260510095715 | 35 | 119 | 4.3 | 5.2 | 0.00 | 0.00 | 0.00 | 76 | 936.7 |
| 20260510095211 | 36 | 134 | 5.2 | 7.0 | 0.00 | 0.00 | 0.00 | 74 | 936.9 |
| 20260510094709 | 36 | 135 | 4.3 | 7.0 | 0.00 | 0.00 | 0.00 | 72 | 936.8 |
| 20260510094205 | 36 | 150 | 3.5 | 4.3 | 0.00 | 0.00 | 0.00 | 73 | 936.8 |
| 20260510093701 | 36 | 129 | 2.6 | 4.3 | 0.00 | 0.00 | 0.00 | 73 | 936.5 |
| 20260510093159 | 36 | 122 | 3.5 | 4.3 | 0.00 | 0.00 | 0.00 | 72 | 936.7 |
| 20260510092655 | 37 | 128 | 3.5 | 5.2 | 0.00 | 0.00 | 0.00 | 72 | 936.5 |
| 20260510092150 | 37 | 108 | 1.7 | 2.6 | 0.00 | 0.00 | 0.00 | 71 | 936.7 |
| 20260510091646 | 37 | 120 | 2.6 | 5.2 | 0.00 | 0.00 | 0.00 | 71 | 936.5 |
| 20260510091142 | 37 | 99 | 1.7 | 2.6 | 0.00 | 0.00 | 0.00 | 71 | 936.4 |
| 20260510090640 | 37 | 118 | 1.7 | 2.6 | 0.00 | 0.00 | 0.00 | 70 | 936.4 |
| 20260510090136 | 37 | 128 | 2.6 | 5.2 | 0.00 | 0.00 | 0.00 | 70 | 936.2 |
| 20260510085631 | 37 | 156 | 4.3 | 5.2 | 0.00 | 0.00 | 0.00 | 70 | 936.4 |
| 20260510085126 | 37 | 126 | 3.5 | 5.2 | 0.00 | 0.00 | 0.00 | 70 | 936.2 |
| 20260510084623 | 37 | 121 | 3.5 | 6.1 | 0.00 | 0.00 | 0.00 | 70 | 936.2 |
| 20260510084120 | 37 | 111 | 1.7 | 4.3 | 0.00 | 0.00 | 0.00 | 69 | 936.4 |
| 20260510083616 | 37 | 94 | 1.7 | 2.6 | 0.00 | 0.00 | 0.00 | 69 | 936.4 |
| 20260510083113 | 38 | 89 | 1.7 | 2.6 | 0.00 | 0.00 | 0.00 | 69 | 936.5 |
| 20260510082610 | 38 | 123 | 3.5 | 4.3 | 0.00 | 0.00 | 0.00 | 69 | 936.2 |
| 20260510082105 | 38 | 115 | 2.6 | 4.3 | 0.00 | 0.00 | 0.00 | 69 | 936.2 |
| 20260510081600 | 37 | 143 | 4.3 | 5.2 | 0.00 | 0.00 | 0.00 | 69 | 936.1 |
| 20260510081056 | 37 | 172 | 3.5 | 5.2 | 0.00 | 0.00 | 0.00 | 69 | 936.1 |
| 20260510080555 | 37 | 144 | 7.8 | 8.7 | 0.00 | 0.00 | 0.00 | 69 | 936.1 |
| 20260510080052 | 38 | 130 | 6.1 | 7.8 | 0.00 | 0.00 | 0.00 | 68 | 936.1 |
| 20260510075550 | 38 | 128 | 3.5 | 7.0 | 0.00 | 0.00 | 0.00 | 68 | 936.0 |
| 20260510075046 | 38 | 135 | 4.3 | 6.1 | 0.00 | 0.00 | 0.00 | 68 | 936.1 |
| 20260510074544 | 38 | 130 | 2.6 | 5.2 | 0.00 | 0.00 | 0.00 | 68 | 936.0 |
| 20260510074039 | 39 | 128 | 3.5 | 4.3 | 0.00 | 0.00 | 0.00 | 67 | 936.1 |
| 20260510073535 | 39 | 121 | 0.0 | 5.2 | 0.00 | 0.00 | 0.00 | 67 | 936.2 |
| 20260510073033 | 39 | 129 | 4.3 | 6.1 | 0.00 | 0.00 | 0.00 | 67 | 936.2 |
| 20260510072529 | 39 | 113 | 4.3 | 6.1 | 0.00 | 0.00 | 0.00 | 66 | 936.2 |
| 20260510072025 | 39 | 130 | 5.2 | 7.0 | 0.00 | 0.00 | 0.00 | 67 | 936.4 |
| 20260510071521 | 39 | 119 | 1.7 | 4.3 | 0.00 | 0.00 | 0.00 | 67 | 936.4 |
| 20260510071020 | 39 | 116 | 2.6 | 4.3 | 0.00 | 0.00 | 0.00 | 67 | 936.0 |
| 20260510070516 | 39 | 124 | 3.5 | 5.2 | 0.00 | 0.00 | 0.00 | 66 | 935.9 |
| 20260510070013 | 39 | 122 | 0.0 | 5.2 | 0.00 | 0.00 | 0.00 | 65 | 936.4 |
| 20260510065509 | 40 | 127 | 3.5 | 4.3 | 0.00 | 0.00 | 0.00 | 64 | 936.0 |
| 20260510065005 | 40 | 100 | 0.0 | 0.0 | 0.00 | 0.00 | 0.00 | 64 | 936.2 |
| 20260510064502 | 40 | 69 | 0.0 | 0.0 | 0.00 | 0.00 | 0.00 | 63 | 936.1 |
| 20260510063959 | 41 | 69 | 0.0 | 0.0 | 0.00 | 0.00 | 0.00 | 62 | 935.9 |
| 20260510063455 | 41 | 74 | 0.0 | 0.0 | 0.00 | 0.00 | 0.00 | 61 | 936.0 |
| 20260510062953 | 41 | 109 | 0.0 | 0.0 | 0.00 | 0.00 | 0.00 | 61 | 936.1 |
| 20260510062448 | 40 | 104 | 0.0 | 0.0 | 0.00 | 0.00 | 0.00 | 61 | 935.9 |
| 20260510061943 | 40 | 73 | 0.0 | 0.0 | 0.00 | 0.00 | 0.00 | 62 | 935.8 |
| 20260510061441 | 41 | 103 | 0.0 | 0.0 | 0.00 | 0.00 | 0.00 | 61 | 935.8 |
| 20260510060937 | 41 | 34 | 0.0 | 0.0 | 0.00 | 0.00 | 0.00 | 60 | 935.8 |
| 20260510060434 | 41 | 78 | 0.0 | 0.0 | 0.00 | 0.00 | 0.00 | 59 | 935.7 |
| 20260510055930 | 41 | 102 | 0.0 | 0.9 | 0.00 | 0.00 | 0.00 | 58 | 935.6 |
| 20260510055426 | 42 | 113 | 0.0 | 0.0 | 0.00 | 0.00 | 0.00 | 57 | 935.5 |
| 20260510054924 | 42 | 105 | 0.0 | 4.3 | 0.00 | 0.00 | 0.00 | 55 | 935.5 |
| 20260510054420 | 43 | 123 | 0.0 | 0.0 | 0.00 | 0.00 | 0.00 | 54 | 935.7 |
| 20260510053915 | 43 | 91 | 0.0 | 0.0 | 0.00 | 0.00 | 0.00 | 52 | 935.8 |
| 20260510053411 | 43 | 92 | 0.0 | 0.0 | 0.00 | 0.00 | 0.00 | 52 | 935.6 |
| 20260510052907 | 44 | 82 | 0.0 | 0.0 | 0.00 | 0.00 | 0.00 | 52 | 935.6 |
| 20260510052403 | 43 | 116 | 0.0 | 1.7 | 0.00 | 0.00 | 0.00 | 51 | 935.7 |
| 20260510051859 | 43 | 123 | 0.9 | 1.7 | 0.00 | 0.00 | 0.00 | 52 | 935.6 |
| 20260510051356 | 43 | 134 | 0.0 | 1.7 | 0.00 | 0.00 | 0.00 | 53 | 935.6 |
| 20260510050852 | 44 | 81 | 0.0 | 0.0 | 0.00 | 0.00 | 0.00 | 52 | 935.8 |
| 20260510050349 | 44 | 77 | 0.0 | 0.0 | 0.00 | 0.00 | 0.00 | 51 | 935.5 |
| 20260510045846 | 45 | 92 | 0.0 | 0.0 | 0.00 | 0.00 | 0.00 | 50 | 935.5 |
| 20260510045343 | 45 | 103 | 0.0 | 0.0 | 0.00 | 0.00 | 0.00 | 51 | 935.5 |
| 20260510044840 | 45 | 104 | 0.0 | 0.0 | 0.00 | 0.00 | 0.00 | 50 | 935.7 |
| 20260510044337 | 45 | 101 | 0.0 | 0.0 | 0.00 | 0.00 | 0.00 | 50 | 935.3 |
| 20260510043833 | 46 | 93 | 0.0 | 0.0 | 0.00 | 0.00 | 0.00 | 50 | 935.7 |
| 20260510043329 | 46 | 97 | 0.0 | 0.0 | 0.00 | 0.00 | 0.00 | 51 | 935.2 |
| 20260510042827 | 47 | 99 | 0.0 | 0.0 | 0.00 | 0.00 | 0.00 | 48 | 935.3 |
| 20260510042323 | 47 | 78 | 0.0 | 0.0 | 0.00 | 0.00 | 0.00 | 47 | 935.1 |
| 20260510041820 | 47 | 75 | 0.0 | 0.0 | 0.00 | 0.00 | 0.00 | 47 | 935.3 |
| 20260510041317 | 47 | 85 | 0.0 | 0.0 | 0.00 | 0.00 | 0.00 | 46 | 935.2 |
| 20260510040814 | 48 | 67 | 0.0 | 0.0 | 0.00 | 0.00 | 0.00 | 44 | 935.1 |
| 20260510040311 | 48 | 66 | 0.0 | 0.0 | 0.00 | 0.00 | 0.00 | 43 | 935.1 |
| 20260510035806 | 48 | 68 | 0.0 | 0.0 | 0.00 | 0.00 | 0.00 | 41 | 935.0 |
| 20260510035306 | 49 | 87 | 0.0 | 0.0 | 0.00 | 0.00 | 0.00 | 41 | 934.9 |
| 20260510034758 | 49 | 68 | 0.0 | 0.0 | 0.00 | 0.00 | 0.00 | 39 | 934.7 |
| 20260510034256 | 49 | 62 | 0.0 | 0.0 | 0.00 | 0.00 | 0.00 | 41 | 934.3 |
| 20260510033752 | 49 | 61 | 0.0 | 0.0 | 0.00 | 0.00 | 0.00 | 41 | 934.4 |
| 20260510033250 | 48 | 61 | 0.0 | 0.0 | 0.00 | 0.00 | 0.00 | 42 | 934.5 |
| 20260510032746 | 49 | 61 | 0.0 | 0.0 | 0.00 | 0.00 | 0.00 | 43 | 934.3 |
| 20260510032242 | 50 | 74 | 0.0 | 0.0 | 0.00 | 0.00 | 0.00 | 41 | 934.2 |
| 20260510031737 | 51 | 77 | 0.0 | 0.0 | 0.00 | 0.00 | 0.00 | 39 | 934.2 |
| 20260510031233 | 52 | 70 | 0.0 | 0.0 | 0.00 | 0.00 | 0.00 | 38 | 934.1 |
| 20260510030733 | 55 | 64 | 0.0 | 0.0 | 0.00 | 0.00 | 0.00 | 36 | 933.9 |
| 20260510030231 | 55 | 11 | 0.0 | 0.0 | 0.00 | 0.00 | 0.00 | 33 | 933.9 |
| 20260510025728 | 55 | 7 | 0.0 | 0.0 | 0.00 | 0.00 | 0.00 | 33 | 933.9 |
| 20260510025225 | 56 | 316 | 0.0 | 0.0 | 0.00 | 0.00 | 0.00 | 33 | 933.5 |
| 20260510024722 | 56 | 353 | 0.0 | 0.0 | 0.00 | 0.00 | 0.00 | 32 | 933.6 |
| 20260510024219 | 56 | 18 | 0.0 | 0.9 | 0.00 | 0.00 | 0.00 | 33 | 933.6 |
| 20260510023714 | 57 | 18 | 0.0 | 0.0 | 0.00 | 0.00 | 0.00 | 33 | 933.5 |
| 20260510023211 | 57 | 14 | 0.0 | 0.0 | 0.00 | 0.00 | 0.00 | 32 | 933.4 |
| 20260510022707 | 57 | 349 | 0.0 | 0.0 | 0.00 | 0.00 | 0.00 | 31 | 933.3 |
| 20260510022201 | 58 | 7 | 0.0 | 4.3 | 0.00 | 0.00 | 0.00 | 30 | 933.3 |
| 20260510021658 | 59 | 332 | 5.2 | 7.8 | 0.00 | 0.00 | 0.00 | 29 | 933.2 |
| 20260510021156 | 59 | 348 | 0.9 | 4.3 | 0.00 | 0.00 | 0.00 | 28 | 933.3 |
| 20260510020656 | 60 | 339 | 0.9 | 7.0 | 0.00 | 0.00 | 0.00 | 27 | 933.2 |
| 20260510020151 | 61 | 3 | 7.0 | 8.7 | 0.00 | 0.00 | 0.00 | 25 | 933.3 |
| 20260510015647 | 61 | 313 | 1.7 | 7.0 | 0.00 | 0.00 | 0.00 | 25 | 933.2 |
| 20260510015138 | 61 | 10 | 1.7 | 9.6 | 0.00 | 0.00 | 0.00 | 25 | 933.1 |
| 20260510014633 | 62 | 332 | 4.3 | 7.8 | 0.00 | 0.00 | 0.00 | 23 | 932.9 |
| 20260510014131 | 62 | 330 | 4.3 | 11.3 | 0.00 | 0.00 | 0.00 | 23 | 933.2 |
| 20260510013630 | 62 | 340 | 11.3 | 15.6 | 0.00 | 0.00 | 0.00 | 22 | 932.9 |
| 20260510013126 | 62 | 314 | 3.5 | 13.0 | 0.00 | 0.00 | 0.00 | 22 | 933.2 |
| 20260510012626 | 63 | 348 | 7.8 | 9.6 | 0.00 | 0.00 | 0.00 | 22 | 932.9 |
| 20260510012123 | 63 | 301 | 7.8 | 14.8 | 0.00 | 0.00 | 0.00 | 22 | 933.1 |
| 20260510011622 | 63 | 321 | 8.7 | 12.2 | 0.00 | 0.00 | 0.00 | 21 | 933.3 |
| 20260510011118 | 63 | 328 | 7.8 | 14.8 | 0.00 | 0.00 | 0.00 | 21 | 933.2 |
| 20260510010615 | 64 | 342 | 6.1 | 13.9 | 0.00 | 0.00 | 0.00 | 20 | 933.2 |
| 20260510010112 | 64 | 294 | 6.1 | 14.8 | 0.00 | 0.00 | 0.00 | 20 | 932.9 |
| 20260510005607 | 64 | 312 | 8.7 | 14.8 | 0.00 | 0.00 | 0.00 | 20 | 932.8 |
| 20260510005105 | 64 | 332 | 13.0 | 18.2 | 0.00 | 0.00 | 0.00 | 19 | 932.9 |
| 20260510004603 | 64 | 300 | 6.1 | 13.0 | 0.00 | 0.00 | 0.00 | 20 | 933.2 |
| 20260510004101 | 64 | 323 | 8.7 | 15.6 | 0.00 | 0.00 | 0.00 | 19 | 932.7 |
| 20260510003557 | 64 | 325 | 13.0 | 19.1 | 0.00 | 0.00 | 0.00 | 19 | 932.8 |
| 20260510003053 | 64 | 331 | 9.6 | 13.0 | 0.00 | 0.00 | 0.00 | 20 | 932.9 |
| 20260510002548 | 64 | 352 | 11.3 | 15.6 | 0.00 | 0.00 | 0.00 | 20 | 932.9 |
| 20260510002046 | 64 | 319 | 7.8 | 14.8 | 0.00 | 0.00 | 0.00 | 20 | 932.8 |
| 20260510001542 | 66 | 297 | 6.1 | 13.9 | 0.00 | 0.00 | 0.00 | 21 | 932.7 |
| 20260510001041 | 66 | 300 | 3.5 | 7.8 | 0.00 | 0.00 | 0.00 | 21 | 932.7 |
| 20260510000536 | 65 | 291 | 3.5 | 12.2 | 0.00 | 0.00 | 0.00 | 20 | 933.1 |
| 20260510000033 | 65 | 327 | 9.6 | 13.9 | 0.00 | 0.00 | 0.00 | 20 | 933.1 |
| 20260509235530 | 66 | 349 | 11.3 | 14.8 | 0.00 | 0.00 | 0.00 | 20 | 933.1 |
| 20260509235027 | 66 | 335 | 5.2 | 9.6 | 0.00 | 0.00 | 0.00 | 20 | 933.1 |
| 20260509234523 | 66 | 307 | 5.2 | 11.3 | 0.00 | 0.00 | 0.00 | 21 | 932.8 |
| 20260509234021 | 65 | 304 | 6.1 | 19.1 | 0.00 | 0.00 | 0.00 | 21 | 932.9 |
| 20260509233518 | 65 | 2 | 7.0 | 12.2 | 0.00 | 0.00 | 0.00 | 20 | 932.7 |
| 20260509233015 | 66 | 265 | 1.7 | 7.0 | 0.00 | 0.00 | 0.00 | 20 | 932.8 |
| 20260509232512 | 66 | 356 | 5.2 | 8.7 | 0.00 | 0.00 | 0.00 | 20 | 932.9 |
| 20260509232008 | 66 | 307 | 4.3 | 9.6 | 0.00 | 0.00 | 0.00 | 21 | 933.1 |
| 20260509231505 | 65 | 340 | 9.6 | 13.0 | 0.00 | 0.00 | 0.00 | 20 | 932.9 |
| 20260509231002 | 65 | 339 | 14.8 | 19.1 | 0.00 | 0.00 | 0.00 | 20 | 933.2 |
| 20260509230459 | 65 | 307 | 5.2 | 13.0 | 0.00 | 0.00 | 0.00 | 22 | 933.1 |
| 20260509225955 | 66 | 292 | 1.7 | 8.7 | 0.00 | 0.00 | 0.00 | 22 | 932.9 |
| 20260509225451 | 66 | 303 | 9.6 | 20.9 | 0.00 | 0.00 | 0.00 | 21 | 932.9 |
| 20260509224947 | 65 | 298 | 9.6 | 15.6 | 0.00 | 0.00 | 0.00 | 20 | 932.7 |
| 20260509224443 | 66 | 346 | 7.8 | 13.0 | 0.00 | 0.00 | 0.00 | 20 | 932.9 |
| 20260509223940 | 65 | 309 | 9.6 | 12.2 | 0.00 | 0.00 | 0.00 | 21 | 932.8 |
| 20260509223436 | 66 | 310 | 6.1 | 14.8 | 0.00 | 0.00 | 0.00 | 21 | 933.1 |
| 20260509222934 | 66 | 280 | 4.3 | 7.0 | 0.00 | 0.00 | 0.00 | 21 | 932.9 |
| 20260509222429 | 66 | 291 | 7.0 | 18.2 | 0.00 | 0.00 | 0.00 | 20 | 932.9 |
| 20260509221925 | 66 | 321 | 7.8 | 14.8 | 0.00 | 0.00 | 0.00 | 20 | 932.8 |
| 20260509221422 | 66 | 301 | 8.7 | 15.6 | 0.00 | 0.00 | 0.00 | 20 | 932.7 |
| 20260509220918 | 65 | 6 | 7.8 | 11.3 | 0.00 | 0.00 | 0.00 | 20 | 932.8 |
| 20260509220414 | 66 | 346 | 3.5 | 7.8 | 0.00 | 0.00 | 0.00 | 21 | 932.8 |
| 20260509215910 | 66 | 294 | 7.8 | 12.2 | 0.00 | 0.00 | 0.00 | 21 | 932.7 |
| 20260509215406 | 65 | 324 | 10.4 | 17.4 | 0.00 | 0.00 | 0.00 | 20 | 932.7 |
| 20260509214904 | 65 | 359 | 6.1 | 14.8 | 0.00 | 0.00 | 0.00 | 19 | 932.8 |
| 20260509214400 | 65 | 309 | 10.4 | 17.4 | 0.00 | 0.00 | 0.00 | 20 | 932.3 |
| 20260509213858 | 66 | 353 | 15.6 | 18.2 | 0.00 | 0.00 | 0.00 | 18 | 932.7 |
| 20260509213354 | 65 | 324 | 6.1 | 18.2 | 0.00 | 0.00 | 0.00 | 19 | 932.6 |
| 20260509212852 | 65 | 333 | 7.0 | 14.8 | 0.00 | 0.00 | 0.00 | 18 | 932.5 |
| 20260509212349 | 66 | 336 | 14.8 | 19.1 | 0.00 | 0.00 | 0.00 | 17 | 932.6 |
| 20260509211844 | 66 | 338 | 13.0 | 20.0 | 0.00 | 0.00 | 0.00 | 18 | 932.8 |
| 20260509211340 | 66 | 323 | 7.0 | 13.0 | 0.00 | 0.00 | 0.00 | 20 | 932.4 |
| 20260509210837 | 67 | 310 | 9.6 | 17.4 | 0.00 | 0.00 | 0.00 | 18 | 932.7 |
| 20260509210335 | 68 | 290 | 11.3 | 14.8 | 0.00 | 0.00 | 0.00 | 18 | 932.7 |
| 20260509205834 | 67 | 321 | 12.2 | 17.4 | 0.00 | 0.00 | 0.00 | 19 | 932.8 |
| 20260509205329 | 66 | 333 | 5.2 | 11.3 | 0.00 | 0.00 | 0.00 | 19 | 932.8 |
| 20260509204826 | 68 | 288 | 7.0 | 13.0 | 0.00 | 0.00 | 0.00 | 18 | 932.7 |
| 20260509204323 | 67 | 284 | 14.8 | 25.2 | 0.00 | 0.00 | 0.00 | 18 | 932.8 |
| 20260509203819 | 66 | 8 | 10.4 | 13.9 | 0.00 | 0.00 | 0.00 | 19 | 932.6 |
| 20260509203316 | 66 | 334 | 10.4 | 13.9 | 0.00 | 0.00 | 0.00 | 18 | 932.6 |
| 20260509202812 | 66 | 294 | 6.1 | 13.0 | 0.00 | 0.00 | 0.00 | 16 | 932.8 |
| 20260509202308 | 67 | 335 | 10.4 | 19.1 | 0.00 | 0.00 | 0.00 | 20 | 932.7 |
| 20260509201807 | 67 | 299 | 12.2 | 18.2 | 0.00 | 0.00 | 0.00 | 17 | 932.6 |
| 20260509201305 | 66 | 312 | 6.1 | 8.7 | 0.00 | 0.00 | 0.00 | 18 | 932.6 |
| 20260509200801 | 66 | 27 | 7.8 | 14.8 | 0.00 | 0.00 | 0.00 | 18 | 932.4 |
| 20260509200256 | 66 | 296 | 11.3 | 13.9 | 0.00 | 0.00 | 0.00 | 19 | 932.7 |
| 20260509195752 | 65 | 341 | 7.0 | 13.9 | 0.00 | 0.00 | 0.00 | 19 | 932.7 |
| 20260509195247 | 66 | 290 | 13.0 | 14.8 | 0.00 | 0.00 | 0.00 | 18 | 932.7 |
| 20260509194742 | 65 | 349 | 9.6 | 15.6 | 0.00 | 0.00 | 0.00 | 19 | 932.7 |
| 20260509194238 | 65 | 338 | 6.1 | 12.2 | 0.00 | 0.00 | 0.00 | 19 | 933.1 |
| 20260509193735 | 66 | 256 | 3.5 | 13.0 | 0.00 | 0.00 | 0.00 | 21 | 932.8 |
| 20260509193235 | 66 | 312 | 6.1 | 11.3 | 0.00 | 0.00 | 0.00 | 21 | 932.8 |
| 20260509192731 | 66 | 283 | 7.8 | 12.2 | 0.00 | 0.00 | 0.00 | 20 | 932.8 |
| 20260509192226 | 66 | 328 | 6.1 | 9.6 | 0.00 | 0.00 | 0.00 | 19 | 932.8 |
| 20260509191722 | 65 | 334 | 4.3 | 14.8 | 0.00 | 0.00 | 0.00 | 18 | 932.7 |
| 20260509191219 | 66 | 345 | 7.8 | 15.6 | 0.00 | 0.00 | 0.00 | 19 | 933.2 |
| 20260509190715 | 66 | 230 | 7.0 | 11.3 | 0.00 | 0.00 | 0.00 | 20 | 933.2 |
| 20260509190212 | 65 | 247 | 13.0 | 17.4 | 0.00 | 0.00 | 0.00 | 19 | 933.1 |